When you browse on this site, cookies collect data to enhance your experience and personalize the content and advertising you see.
Visit our Privacy Policy to learn more. By continuing to use the site, you agree to this use of cookies and data.
  • In Österreich
  • Länderverzeichnis
  • Für 7 Tage
  • Wassertemperatur
  • Satellitenkarten
  • Wetterkarte
  • News
  • Widgets
  • user-avatar
    Anmelden

    Stündliche Wetter Nachiczewan

    Heute, 20 Juli, Samstag

    Zeit Temperatur Niederschläge Wind Luftdruck Luftfeuchtigkeit
    00:00 +28°C° 0 mm 2 m/S 687 mmHg 45%
    01:00 +28°C° 0 mm 2 m/S 687 mmHg 46%
    02:00 +27°C° 0 mm 2 m/S 686 mmHg 48%
    03:00 +27°C° 0 mm 2 m/S 686 mmHg 49%
    04:00 +27°C° 0 mm 2 m/S 687 mmHg 49%
    05:00 +27°C° 0 mm 2 m/S 687 mmHg 48%
    06:00 +27°C° 0 mm 2 m/S 688 mmHg 48%
    07:00 +28°C° 0 mm 2 m/S 688 mmHg 45%
    08:00 +29°C° 0 mm 2 m/S 688 mmHg 41%
    09:00 +31°C° 0 mm 2 m/S 688 mmHg 37%
    10:00 +34°C° 0 mm 3 m/S 688 mmHg 34%
    11:00 +35°C° 0 mm 4 m/S 688 mmHg 30%
    12:00 +37°C° 0 mm 4 m/S 689 mmHg 26%
    13:00 +39°C° 0 mm 5 m/S 688 mmHg 24%
    14:00 +40°C° 0 mm 5 m/S 688 mmHg 22%
    15:00 +41°C° 0 mm 5 m/S 688 mmHg 19%
    16:00 +40°C° 0 mm 6 m/S 688 mmHg 20%
    17:00 +40°C° 0 mm 6 m/S 688 mmHg 21%
    18:00 +39°C° 0 mm 6 m/S 688 mmHg 22%
    19:00 +36°C° 0 mm 5 m/S 688 mmHg 25%
    20:00 +34°C° 0 mm 4 m/S 688 mmHg 29%
    21:00 +32°C° 0 mm 4 m/S 688 mmHg 32%
    22:00 +30°C° 0 mm 3 m/S 688 mmHg 35%
    23:00 +29°C° 0 mm 3 m/S 688 mmHg 37%

    Morgen, 21 Juli, Sonntag

    Zeit Temperatur Niederschläge Wind Luftdruck Luftfeuchtigkeit
    00:00 +28°C° 0 mm 3 m/S 689 mmHg 39%
    01:00 +28°C° 0 mm 2 m/S 689 mmHg 41%
    02:00 +27°C° 0 mm 2 m/S 688 mmHg 42%
    03:00 +26°C° 0 mm 2 m/S 688 mmHg 43%
    04:00 +26°C° 0 mm 2 m/S 688 mmHg 43%
    05:00 +26°C° 0 mm 2 m/S 689 mmHg 42%
    06:00 +27°C° 0 mm 2 m/S 689 mmHg 41%
    07:00 +28°C° 0 mm 2 m/S 689 mmHg 37%
    08:00 +30°C° 0 mm 2 m/S 689 mmHg 33%
    09:00 +33°C° 0 mm 3 m/S 689 mmHg 29%
    10:00 +35°C° 0 mm 3 m/S 689 mmHg 25%
    11:00 +37°C° 0 mm 4 m/S 689 mmHg 21%
    12:00 +40°C° 0 mm 4 m/S 689 mmHg 18%
    13:00 +42°C° 0 mm 5 m/S 688 mmHg 16%
    14:00 +43°C° 0 mm 5 m/S 688 mmHg 14%
    15:00 +45°C° 0 mm 6 m/S 687 mmHg 12%
    16:00 +44°C° 0 mm 6 m/S 687 mmHg 14%
    17:00 +42°C° 0 mm 6 m/S 687 mmHg 15%
    18:00 +42°C° 0 mm 6 m/S 687 mmHg 16%
    19:00 +39°C° 0 mm 5 m/S 687 mmHg 20%
    20:00 +36°C° 0 mm 4 m/S 687 mmHg 25%
    21:00 +33°C° 0 mm 3 m/S 687 mmHg 29%
    22:00 +32°C° 0 mm 2 m/S 687 mmHg 30%
    23:00 +31°C° 0 mm 2 m/S 687 mmHg 31%

    übermorgen, 22 Juli, Montag

    Zeit Temperatur Niederschläge Wind Luftdruck Luftfeuchtigkeit
    00:00 +30°C° 0 mm 2 m/S 686 mmHg 32%
    01:00 +29°C° 0 mm 2 m/S 686 mmHg 34%
    02:00 +29°C° 0 mm 2 m/S 686 mmHg 36%
    03:00 +28°C° 0 mm 1 m/S 686 mmHg 37%
    04:00 +28°C° 0 mm 1 m/S 686 mmHg 37%
    05:00 +29°C° 0 mm 1 m/S 686 mmHg 37%
    06:00 +27°C° 0 mm 0 m/S 686 mmHg 36%
    07:00 +29°C° 0 mm 0 m/S 686 mmHg 32%
    08:00 +33°C° 0 mm 1 m/S 686 mmHg 28%
    09:00 +35°C° 0 mm 1 m/S 686 mmHg 23%
    10:00 +37°C° 0 mm 1 m/S 686 mmHg 20%
    11:00 +40°C° 0 mm 2 m/S 686 mmHg 17%
    12:00 +42°C° 0 mm 2 m/S 686 mmHg 14%
    13:00 +44°C° 0 mm 3 m/S 686 mmHg 12%
    14:00 +47°C° 0 mm 5 m/S 686 mmHg 10%
    15:00 +48°C° 0 mm 6 m/S 685 mmHg 8%
    16:00 +47°C° 0 mm 6 m/S 685 mmHg 9%
    17:00 +46°C° 0 mm 6 m/S 685 mmHg 11%
    18:00 +45°C° 0 mm 6 m/S 685 mmHg 12%
    19:00 +42°C° 0 mm 5 m/S 685 mmHg 18%
    20:00 +39°C° 0 mm 5 m/S 685 mmHg 23%
    21:00 +35°C° 0 mm 4 m/S 685 mmHg 29%
    22:00 +34°C° 0 mm 3 m/S 685 mmHg 31%
    23:00 +32°C° 0 mm 2 m/S 685 mmHg 33%

    23 Juli, Dienstag

    Zeit Temperatur Niederschläge Wind Luftdruck Luftfeuchtigkeit
    00:00 +31°C° 0 mm 2 m/S 684 mmHg 36%
    01:00 +30°C° 0 mm 2 m/S 684 mmHg 39%
    02:00 +29°C° 0 mm 2 m/S 684 mmHg 42%
    03:00 +29°C° 0 mm 2 m/S 684 mmHg 45%
    04:00 +29°C° 0 mm 2 m/S 684 mmHg 46%
    05:00 +29°C° 0 mm 2 m/S 685 mmHg 46%
    06:00 +28°C° 0 mm 2 m/S 685 mmHg 47%
    07:00 +30°C° 0 mm 2 m/S 685 mmHg 43%
    08:00 +31°C° 0 mm 2 m/S 685 mmHg 39%
    09:00 +34°C° 0 mm 2 m/S 685 mmHg 35%
    10:00 +35°C° 0 mm 2 m/S 685 mmHg 32%
    11:00 +37°C° 0 mm 2 m/S 685 mmHg 28%
    12:00 +39°C° 0 mm 2 m/S 685 mmHg 24%
    13:00 +40°C° 0 mm 3 m/S 684 mmHg 21%
    14:00 +43°C° 0 mm 4 m/S 684 mmHg 18%
    15:00 +45°C° 0 mm 5 m/S 684 mmHg 16%
    16:00 +44°C° 0 mm 6 m/S 684 mmHg 17%
    17:00 +42°C° 0 mm 6 m/S 684 mmHg 18%
    18:00 +41°C° 0 mm 6 m/S 684 mmHg 20%
    19:00 +39°C° 0 mm 5 m/S 684 mmHg 24%
    20:00 +36°C° 0 mm 4 m/S 684 mmHg 28%
    21:00 +33°C° 0 mm 3 m/S 684 mmHg 33%
    22:00 +31°C° 0 mm 3 m/S 685 mmHg 36%
    23:00 +31°C° 0 mm 2 m/S 685 mmHg 38%

    24 Juli, Mittwoch

    Zeit Temperatur Niederschläge Wind Luftdruck Luftfeuchtigkeit
    00:00 +30°C° 0 mm 1 m/S 685 mmHg 41%
    01:00 +29°C° 0 mm 1 m/S 685 mmHg 43%
    02:00 +28°C° 0 mm 1 m/S 685 mmHg 46%
    03:00 +28°C° 0 mm 1 m/S 684 mmHg 48%
    04:00 +28°C° 0 mm 1 m/S 685 mmHg 48%
    05:00 +28°C° 0 mm 1 m/S 685 mmHg 48%
    06:00 +28°C° 0 mm 1 m/S 685 mmHg 48%
    07:00 +30°C° 0 mm 1 m/S 685 mmHg 44%
    08:00 +31°C° 0 mm 1 m/S 685 mmHg 40%
    09:00 +32°C° 0 mm 1 m/S 686 mmHg 35%
    10:00 +35°C° 0 mm 2 m/S 686 mmHg 29%
    11:00 +38°C° 0 mm 2 m/S 686 mmHg 22%
    12:00 +40°C° 0 mm 2 m/S 686 mmHg 16%
    13:00 +41°C° 0 mm 2 m/S 685 mmHg 14%
    14:00 +42°C° 0 mm 2 m/S 685 mmHg 12%
    15:00 +42°C° 0 mm 2 m/S 685 mmHg 10%
    16:00 +42°C° 0 mm 2 m/S 685 mmHg 9%
    17:00 +43°C° 0 mm 3 m/S 685 mmHg 9%
    18:00 +43°C° 0 mm 3 m/S 685 mmHg 9%
    19:00 +40°C° 0 mm 3 m/S 685 mmHg 13%
    20:00 +38°C° 0 mm 3 m/S 685 mmHg 17%
    21:00 +35°C° 0 mm 2 m/S 685 mmHg 21%
    22:00 +34°C° 0 mm 2 m/S 685 mmHg 23%
    23:00 +32°C° 0 mm 2 m/S 685 mmHg 26%

    25 Juli, Donnerstag

    Zeit Temperatur Niederschläge Wind Luftdruck Luftfeuchtigkeit
    00:00 +31°C° 0 mm 2 m/S 685 mmHg 28%
    01:00 +30°C° 0 mm 2 m/S 685 mmHg 30%
    02:00 +29°C° 0 mm 2 m/S 684 mmHg 31%
    03:00 +29°C° 0 mm 2 m/S 684 mmHg 32%
    04:00 +29°C° 0 mm 1 m/S 684 mmHg 32%
    05:00 +29°C° 0 mm 1 m/S 685 mmHg 31%
    06:00 +30°C° 0 mm 1 m/S 685 mmHg 31%
    07:00 +32°C° 0 mm 1 m/S 685 mmHg 27%
    08:00 +34°C° 0 mm 1 m/S 685 mmHg 23%
    09:00 +36°C° 0 mm 1 m/S 686 mmHg 19%
    10:00 +39°C° 0 mm 2 m/S 685 mmHg 16%
    11:00 +42°C° 0 mm 3 m/S 685 mmHg 13%
    12:00 +45°C° 0 mm 4 m/S 685 mmHg 10%
    13:00 +46°C° 0 mm 5 m/S 685 mmHg 9%
    14:00 +47°C° 0 mm 6 m/S 685 mmHg 7%
    15:00 +49°C° 0 mm 7 m/S 684 mmHg 6%
    16:00 +47°C° 0 mm 7 m/S 684 mmHg 7%
    17:00 +47°C° 0 mm 7 m/S 684 mmHg 7%
    18:00 +46°C° 0 mm 7 m/S 684 mmHg 7%
    19:00 +42°C° 0 mm 5 m/S 684 mmHg 10%
    20:00 +40°C° 0 mm 4 m/S 684 mmHg 13%
    21:00 +36°C° 0 mm 2 m/S 684 mmHg 15%
    22:00 +35°C° 0 mm 2 m/S 684 mmHg 18%
    23:00 +32°C° 0 mm 1 m/S 683 mmHg 21%
    Mehr zeigen